Flag Weather past 2 weeks in Omaha, Nebraska, U.S.A.

Now
17 °F

Clear.


Feels Like: 17 °F
Forecast: 16 / 30 °F
Wind: No wind

Location: Millard Airport

Current Time: Nov 27, 2014 at 4:46:11 AM

Latest Report: Nov 27, 2014 at 4:15 AM


Visibility: 10 mi

Pressure: 30.51 "Hg

Humidity: 77%

Dew point: 11 °F

Location of OmahaLocation

Historic Weather in Omaha — Graph

°F

Omaha temperature yesterday

Maximum temperature yesterday: 40 °F (at 12:15 AM)
Minimum temperature yesterday: 22 °F (at 11:55 PM)
Average temperature yesterday: 33 °F

Past Weeks' High & Low Weather Summary

 TemperatureHumidityPressure
High59 °F (Nov 22, 3:15 PM)93% (Nov 21, 11:15 PM)30.58 "Hg (Nov 21, 11:15 PM)
Low6 °F (Nov 16, 7:55 AM)38% (Nov 14, 3:15 PM)29.46 "Hg (Nov 23, 5:55 AM)
Average27 °F68%30.12 "Hg
* Reported Nov 12 3:15 AM — Nov 27 3:55 AM, Omaha, Weather by CustomWeather, © 2014

Note: Actual official high and low records may vary slightly from our data, if they occured in-between our weather recording intervals... More about our weather records

Advertising

Omaha weather history for previous 24 hours

 ConditionsComfort  
Time TempWeatherWind HumidityBarometerVisibility
3:55 AM
Nov 27
18 °FClear.3 mph76%30.50 "Hg10 mi
3:15 AM18 °FClear.3 mph79%30.50 "Hg10 mi
2:55 AM18 °FPassing clouds.3 mph77%30.50 "Hg10 mi
2:15 AM18 °FPassing clouds.6 mph77%30.50 "Hg10 mi
1:55 AM18 °FOvercast.7 mph78%30.50 "Hg10 mi
1:35 AM18 °FPassing clouds.7 mph78%30.50 "Hg10 mi
1:15 AM18 °FClear.8 mph78%30.49 "Hg10 mi
12:55 AM19 °FPassing clouds.9 mph76%30.49 "Hg10 mi
12:35 AM20 °FOvercast.8 mph76%30.48 "Hg10 mi
12:15 AM21 °FOvercast.9 mph77%30.48 "Hg10 mi
11:55 PM
Nov 26
22 °FOvercast.12 mph77%30.48 "Hg10 mi
11:35 PM23 °FOvercast.10 mph78%30.45 "Hg10 mi
11:15 PM23 °FOvercast.8 mph79%30.44 "Hg10 mi
10:55 PM24 °FOvercast.5 mph77%30.44 "Hg10 mi
10:15 PM25 °FOvercast.12 mph76%30.43 "Hg10 mi
9:55 PM25 °FOvercast.8 mph77%30.43 "Hg10 mi
9:15 PM25 °FOvercast.10 mph78%30.42 "Hg10 mi
8:55 PM25 °FOvercast.9 mph78%30.41 "Hg10 mi
8:15 PM25 °FOvercast.9 mph78%30.41 "Hg10 mi
7:55 PM25 °FOvercast.13 mph77%30.39 "Hg10 mi
7:15 PM25 °FOvercast.12 mph76%30.37 "Hg10 mi
6:55 PM25 °FOvercast.12 mph75%30.37 "Hg10 mi
6:35 PM25 °FOvercast.12 mph76%30.35 "Hg10 mi
6:15 PM26 °FOvercast.15 mph76%30.35 "Hg10 mi
5:55 PM26 °FOvercast.10 mph76%30.33 "Hg10 mi
5:15 PM27 °FOvercast.12 mph75%30.31 "Hg10 mi
4:55 PM28 °FOvercast.13 mph74%30.30 "Hg10 mi
4:35 PM28 °FOvercast.13 mph74%30.28 "Hg10 mi
4:15 PM28 °FOvercast.20 mph74%30.27 "Hg10 mi
3:55 PM29 °FOvercast.18 mph73%30.25 "Hg10 mi
3:15 PM29 °FOvercast.17 mph74%30.22 "Hg10 mi
2:55 PM29 °FOvercast.14 mph74%30.20 "Hg10 mi
2:35 PM31 °FOvercast.20 mph70%30.19 "Hg10 mi
2:15 PM31 °FOvercast.13 mph68%30.18 "Hg10 mi
1:55 PM31 °FOvercast.21 mph68%30.17 "Hg10 mi
1:35 PM31 °FOvercast.20 mph69%30.16 "Hg10 mi
1:15 PM32 °FOvercast.15 mph67%30.14 "Hg10 mi
12:55 PM31 °FOvercast.23 mph71%30.13 "Hg10 mi
12:35 PM32 °FOvercast.18 mph71%30.11 "Hg10 mi
12:15 PM32 °FOvercast.17 mph72%30.10 "Hg10 mi
11:55 AM32 °FOvercast.23 mph76%30.09 "Hg10 mi
11:35 AM33 °FOvercast.16 mph77%30.08 "Hg10 mi
11:15 AM33 °FOvercast.18 mph77%30.07 "Hg10 mi
10:55 AM34 °FOvercast.16 mph79%30.06 "Hg10 mi
10:15 AM36 °FOvercast.22 mph79%30.03 "Hg10 mi
9:55 AM37 °FOvercast.17 mph81%30.00 "Hg10 mi
9:35 AM37 °FOvercast.16 mph83%29.98 "Hg10 mi
9:15 AM37 °FOvercast.18 mph82%29.97 "Hg10 mi
8:55 AM37 °FOvercast.20 mph81%29.96 "Hg10 mi
8:35 AM38 °FOvercast.21 mph80%29.94 "Hg10 mi
8:15 AM38 °FOvercast.20 mph80%29.94 "Hg10 mi
7:55 AM38 °FOvercast.20 mph80%29.92 "Hg10 mi
7:35 AM38 °FOvercast.18 mph82%29.91 "Hg10 mi
7:15 AM38 °FOvercast.17 mph81%29.90 "Hg10 mi
6:55 AM39 °FOvercast.20 mph81%29.89 "Hg10 mi
6:35 AM39 °FOvercast.18 mph79%29.88 "Hg10 mi
6:15 AM39 °FOvercast.15 mph81%29.88 "Hg10 mi
5:55 AM39 °FOvercast.14 mph80%29.87 "Hg10 mi
5:15 AM39 °FOvercast.18 mph79%29.86 "Hg10 mi
4:55 AM39 °FOvercast.14 mph81%29.85 "Hg10 mi
4:15 AM38 °FOvercast.13 mph83%29.85 "Hg10 mi
Weather by CustomWeather, © 2014

See weather overviewHow to use our weather pages